Regional Weather Roundup
Issued by NWS

Home | Current Version | Previous Version | Graphics & Text | Print | Product List | Glossary On
Versions: 1 2 3 4 5 6 7 8 9 10 11 12 13 14 15 16 17 18 19 20 21 22 23 24 25 26 27 28 29 30 31 32 33 34 35 36 37 38 39 40 41 42 43 44 45 46 47 48 49
778
ASUS45 KBOU 070707
RWRCO

WEATHER ROUNDUP FOR COLORADO
NATIONAL WEATHER SERVICE DENVER/BOULDER CO
1200 AM MST SUN FEB 07 2016

NOTE: "FAIR" INDICATES FEW OR NO CLOUDS BELOW 12000 FEET WITH NO
SIGNIFICANT WEATHER AND/OR OBSTRUCTIONS TO VISIBILITY.

COZ001>005-013-030-031-070800-
...NORTHWEST COLORADO...

CITY           SKY/WX    TMP DP  RH WIND       PRES   REMARKS
CRAIG          CLOUDY     8   4  83 CALM      30.41S
HAYDEN         CLOUDY    12   7  79 CALM      30.38S
MEEKER         CLOUDY    17  11  77 CALM      30.40R
MOUNT WERNER   NOT AVBL
STEAMBOAT SPGS CLOUDY     9   5  85 CALM      30.39S
WALDEN         CLOUDY    27  12  54 CALM      30.30S
$$

COZ006>008-011-070800-
...WEST CENTRAL VALLEYS...

CITY           SKY/WX    TMP DP  RH WIND       PRES   REMARKS
GRAND JUNCTION CLOUDY    13  10  88 E3        30.52R
MONTROSE       CLOUDY    12   7  80 S3        30.48S
EAGLE          CLOUDY    12  10  92 CALM      30.45S
RIFLE          CLOUDY    13   7  77 S3        30.48R
DELTA          CLOUDY    18  15  86 CALM      30.50S
NUCLA          CLOUDY    19  12  73 E5        30.50R WCI  13
$$

COZ017>023-064>068-070800-
...SOUTHWEST COLORADO...

CITY           SKY/WX    TMP DP  RH WIND       PRES   REMARKS
DURANGO        CLOUDY    15   9  76 N6        30.40S WCI   6
CORTEZ         CLOUDY    14  10  84 E8        30.43R WCI   3
PAGOSA SPRINGS CLOUDY    12  10  92 CALM      30.39S
TELLURIDE      CLOUDY    22  14  71 SE6       30.43R WCI  15
WOLF CREEK PAS CLOUDY    21   3  45 N6        30.43F WCI  14
$$

COZ009-010-012-014-032>034-037-058>063-070800-
...CENTRAL COLORADO...

CITY           SKY/WX    TMP DP  RH WIND       PRES   REMARKS
ASPEN          CLOUDY    14   9  80 S9        30.38F WCI   2
BUENA VISTA    CLOUDY    13   4  69 CALM      30.28F
COPPER MTN     NOT AVBL
BERTHOUD PASS  FAIR      12   1  62 NW32G40   30.30S WCI -10
COTTONWOOD PAS CLOUDY    32   1  27 NW8       30.26F WCI  25
GUNNISON       CLOUDY   -11 -24  53 E3        30.49S
KREMMLING      CLOUDY    -2  -8  78 CALM      30.41F
LEADVILLE      CLOUDY    19   3  49 NE8       30.32F WCI   9
MONARCH PASS     N/A     12   9  85 MISG      30.41S
SALIDA         NOT AVBL
SUNLIGHT       CLOUDY    19  14  79 CALM        N/A
WILKERSON PASS CLOUDY    23   0  36 NW21G37   30.23F WCI   8
$$

COZ069>075-070800-
...SAN LUIS VALLEY/SANGRE DE CRISTO MOUNTAINS...

CITY           SKY/WX    TMP DP  RH WIND       PRES   REMARKS
ALAMOSA        CLOUDY     3  -1  83 CALM      30.36R
LA VETA PASS   CLOUDY    21   9  58 MISG      30.27S
SAGUACHE       CLOUDY    18   5  57 NW6       30.36S WCI   9
$$

COZ035-036-038>040-070800-
...NORTHERN COLORADO FRONT RANGE...

CITY           SKY/WX    TMP DP  RH WIND       PRES   REMARKS
DENVER INTL AP CLOUDY    37  15  40 SW7       30.11R
DMNS CITY PARK   N/A     44   9  24 SW8G15    30.11S
AURORA         MOCLDY    37  15  39 S5        30.13S
FRONT RANGE AP   N/A     37  14  38 SW9       30.13R
ERIE MUNI ARPT CLOUDY    38  15  38 SE8       30.09S
BOULDER MUN AP CLOUDY    46  12  25 NE13G22   30.06S
CENTENNIAL     CLOUDY    46   6  19 W15       30.11F
BROOMFIELD     CLOUDY    46  10  23 W35G40    30.10R
FORT COLLINS   CLOUDY    48  12  23 NW14G26   30.10S
LONGMONT       CLOUDY    49  13  23 NW22G41   30.09S
$$

COZ041-046-047-076>085-087-088-070800-
...PIKES PEAK/PALMER DIVIDE AND SOUTHERN FOOTHILLS...

CITY           SKY/WX    TMP DP  RH WIND       PRES   REMARKS
COLO. SPRINGS  CLOUDY    40   9  28 NW9       30.15F
A. F. ACADEMY  CLOUDY    41   6  23 W14G21    30.13F
SCHRIEVER AFB  FAIR      39   8  27 NW16G22   30.15F
ELLICOTT       NOT AVBL
FALCON         CLOUDY    34   9  34 NW12      30.16F WCI  25
FORT CARSON    CLOUDY    37  14  38 W2        30.12F
LIMON          CLOUDY    30  19  63 W17       30.10S WCI  18
MONUMENT HILL  CLOUDY    32  10  40 W10       30.17F WCI  24
TRINIDAD       CLOUDY    32  17  54 W14       30.17F WCI  22
$$

COZ042>045-048>051-090-091-070800-
...NORTHEAST COLORADO...

CITY           SKY/WX    TMP DP  RH WIND       PRES   REMARKS
GREELEY ARPT   CLOUDY    30  19  64 N5        30.10F WCI  25
AKRON          CLOUDY    31  21  66 N15       30.10S WCI  20
BURLINGTON     CLOUDY    35  23  61 NW10      30.13R WCI  27
WRAY           CLOUDY    33  26  75 N12       30.11S WCI  24
STERLING       CLOUDY    34  25  69 NE7       30.13R WCI  28
HOLYOKE        CLOUDY    37  28  70 NW20      30.12S
FORT MORGAN    CLOUDY    35  19  52 CALM      30.12R
$$

COZ086-089-092>099-070800-
...SOUTHEAST COLORADO...

CITY           SKY/WX    TMP DP  RH WIND       PRES   REMARKS
PUEBLO         CLOUDY    39  20  46 W9        30.12F
LA JUNTA       CLOUDY    32  24  72 W8        30.10F WCI  25
LAMAR          CLOUDY    28  23  81 SW10      30.08F WCI  19
SPRINGFIELD      N/A     34  21  59 W13       30.10S WCI  25
$$




USA.gov is the U.S. government's official web portal to all federal, state and local government web resources and services.